• In Moldova, Republic
  • List of Countries
  • For 7 days
  • Water Temperature
  • Satellite Maps
  • Weather Map
  • Weather Widgets
  • user-avatar
    Login

    Hourly Weather Ondjiwa

    Today, 23 February, Friday

    Time Temperature Precipitation Wind Pressure Humidity
    00:00 +24°C° 0.4 mm 3 mps 664 mmHg 70%
    01:00 +23°C° 0.4 mm 2 mps 664 mmHg 72%
    02:00 +23°C° 0.1 mm 2 mps 663 mmHg 73%
    03:00 +21°C° 0.1 mm 2 mps 663 mmHg 74%
    04:00 +21°C° 0.1 mm 2 mps 663 mmHg 75%
    05:00 +21°C° 0 mm 2 mps 663 mmHg 75%
    06:00 +21°C° 0 mm 2 mps 664 mmHg 74%
    07:00 +23°C° 0 mm 2 mps 664 mmHg 71%
    08:00 +25°C° 0 mm 2 mps 665 mmHg 62%
    09:00 +27°C° 0 mm 2 mps 665 mmHg 52%
    10:00 +29°C° 0 mm 2 mps 665 mmHg 43%
    11:00 +31°C° 0 mm 2 mps 665 mmHg 38%
    12:00 +34°C° 0 mm 2 mps 665 mmHg 34%
    13:00 +35°C° 0 mm 2 mps 664 mmHg 29%
    14:00 +36°C° 0 mm 3 mps 664 mmHg 28%
    15:00 +36°C° 0 mm 3 mps 664 mmHg 27%
    16:00 +36°C° 0 mm 3 mps 663 mmHg 25%
    17:00 +35°C° 0 mm 2 mps 663 mmHg 29%
    18:00 +32°C° 0 mm 2 mps 663 mmHg 32%
    19:00 +30°C° 0 mm 1 mps 663 mmHg 35%
    20:00 +29°C° 0 mm 2 mps 663 mmHg 38%
    21:00 +28°C° 0 mm 3 mps 664 mmHg 41%
    22:00 +28°C° 0 mm 4 mps 664 mmHg 44%
    23:00 +27°C° 0 mm 4 mps 664 mmHg 46%

    Tomorrow, 24 February, Saturday

    Time Temperature Precipitation Wind Pressure Humidity
    00:00 +26°C° 0 mm 4 mps 664 mmHg 47%
    01:00 +25°C° 0 mm 4 mps 664 mmHg 49%
    02:00 +25°C° 0 mm 4 mps 664 mmHg 51%
    03:00 +23°C° 0 mm 4 mps 664 mmHg 53%
    04:00 +22°C° 0 mm 4 mps 664 mmHg 55%
    05:00 +22°C° 0 mm 4 mps 664 mmHg 56%
    06:00 +22°C° 0 mm 4 mps 664 mmHg 56%
    07:00 +22°C° 0 mm 4 mps 665 mmHg 56%
    08:00 +25°C° 0 mm 4 mps 665 mmHg 51%
    09:00 +26°C° 0 mm 4 mps 666 mmHg 45%
    10:00 +27°C° 0 mm 4 mps 666 mmHg 40%
    11:00 +28°C° 0 mm 4 mps 666 mmHg 36%
    12:00 +29°C° 0 mm 3 mps 665 mmHg 32%
    13:00 +30°C° 0 mm 3 mps 665 mmHg 29%
    14:00 +31°C° 0 mm 3 mps 665 mmHg 29%
    15:00 +31°C° 0 mm 2 mps 664 mmHg 29%
    16:00 +31°C° 0 mm 2 mps 664 mmHg 28%
    17:00 +30°C° 0 mm 2 mps 664 mmHg 29%
    18:00 +29°C° 0 mm 2 mps 664 mmHg 29%
    19:00 +28°C° 0 mm 1 mps 664 mmHg 30%
    20:00 +28°C° 0 mm 2 mps 665 mmHg 31%
    21:00 +27°C° 0 mm 3 mps 665 mmHg 32%
    22:00 +27°C° 0 mm 4 mps 666 mmHg 33%
    23:00 +26°C° 0 mm 4 mps 666 mmHg 38%

    Day after tomorrow, 25 February, Sunday

    Time Temperature Precipitation Wind Pressure Humidity
    00:00 +24°C° 0 mm 3 mps 665 mmHg 44%
    01:00 +22°C° 0 mm 3 mps 665 mmHg 49%
    02:00 +21°C° 0 mm 3 mps 665 mmHg 51%
    03:00 +21°C° 0 mm 2 mps 665 mmHg 54%
    04:00 +20°C° 0 mm 2 mps 665 mmHg 56%
    05:00 +20°C° 0 mm 2 mps 665 mmHg 57%
    06:00 +20°C° 0 mm 2 mps 666 mmHg 58%
    07:00 +20°C° 0 mm 3 mps 666 mmHg 58%
    08:00 +24°C° 0 mm 3 mps 667 mmHg 49%
    09:00 +26°C° 0 mm 3 mps 668 mmHg 39%
    10:00 +29°C° 0 mm 4 mps 668 mmHg 29%
    11:00 +30°C° 0 mm 4 mps 668 mmHg 26%
    12:00 +33°C° 0 mm 4 mps 667 mmHg 22%
    13:00 +34°C° 0 mm 4 mps 667 mmHg 18%
    14:00 +34°C° 0 mm 5 mps 666 mmHg 18%
    15:00 +34°C° 0 mm 5 mps 666 mmHg 18%
    16:00 +34°C° 0 mm 5 mps 665 mmHg 18%
    17:00 +32°C° 0 mm 4 mps 665 mmHg 21%
    18:00 +30°C° 0 mm 3 mps 665 mmHg 24%
    19:00 +28°C° 0 mm 2 mps 665 mmHg 26%
    20:00 +27°C° 0 mm 3 mps 665 mmHg 28%
    21:00 +27°C° 0 mm 3 mps 666 mmHg 29%
    22:00 +27°C° 0 mm 4 mps 667 mmHg 30%
    23:00 +25°C° 0 mm 3 mps 667 mmHg 36%

    26 February, Monday

    Time Temperature Precipitation Wind Pressure Humidity
    00:00 +24°C° 0 mm 3 mps 666 mmHg 42%
    01:00 +22°C° 0 mm 3 mps 666 mmHg 47%
    02:00 +21°C° 0 mm 3 mps 666 mmHg 50%
    03:00 +20°C° 0 mm 2 mps 666 mmHg 52%
    04:00 +20°C° 0 mm 2 mps 665 mmHg 54%
    05:00 +20°C° 0 mm 2 mps 666 mmHg 54%
    06:00 +20°C° 0 mm 2 mps 666 mmHg 53%
    07:00 +20°C° 0 mm 2 mps 667 mmHg 53%
    08:00 +24°C° 0 mm 2 mps 667 mmHg 43%
    09:00 +26°C° 0 mm 3 mps 668 mmHg 33%
    10:00 +29°C° 0 mm 3 mps 668 mmHg 24%
    11:00 +30°C° 0 mm 3 mps 668 mmHg 21%
    12:00 +33°C° 0 mm 3 mps 667 mmHg 17%
    13:00 +35°C° 0 mm 4 mps 667 mmHg 14%
    14:00 +35°C° 0 mm 4 mps 666 mmHg 15%
    15:00 +35°C° 0 mm 3 mps 666 mmHg 15%
    16:00 +35°C° 0 mm 3 mps 665 mmHg 15%
    17:00 +33°C° 0 mm 3 mps 665 mmHg 17%
    18:00 +30°C° 0 mm 2 mps 665 mmHg 20%
    19:00 +28°C° 0 mm 1 mps 664 mmHg 23%
    20:00 +27°C° 0 mm 1 mps 665 mmHg 23%
    21:00 +27°C° 0 mm 1 mps 665 mmHg 24%
    22:00 +26°C° 0 mm 1 mps 666 mmHg 24%
    23:00 +25°C° 0 mm 2 mps 666 mmHg 27%

    27 February, Tuesday

    Time Temperature Precipitation Wind Pressure Humidity
    00:00 +24°C° 0 mm 2 mps 665 mmHg 30%
    01:00 +22°C° 0 mm 3 mps 665 mmHg 33%
    02:00 +23°C° 0 mm 2 mps 665 mmHg 34%
    03:00 +21°C° 0 mm 2 mps 665 mmHg 35%
    04:00 +21°C° 0 mm 2 mps 665 mmHg 37%
    05:00 +21°C° 0 mm 2 mps 666 mmHg 38%
    06:00 +21°C° 0 mm 2 mps 666 mmHg 38%
    07:00 +21°C° 0 mm 2 mps 667 mmHg 39%
    08:00 +25°C° 0 mm 2 mps 667 mmHg 36%
    09:00 +27°C° 0 mm 2 mps 668 mmHg 33%
    10:00 +30°C° 0 mm 3 mps 668 mmHg 29%
    11:00 +33°C° 0 mm 3 mps 668 mmHg 27%
    12:00 +34°C° 0 mm 3 mps 667 mmHg 25%
    13:00 +36°C° 0 mm 3 mps 667 mmHg 22%
    14:00 +36°C° 0 mm 3 mps 666 mmHg 22%
    15:00 +36°C° 0 mm 4 mps 666 mmHg 21%
    16:00 +36°C° 0 mm 4 mps 665 mmHg 20%
    17:00 +34°C° 0 mm 3 mps 665 mmHg 22%
    18:00 +31°C° 0 mm 3 mps 665 mmHg 24%
    19:00 +29°C° 0 mm 2 mps 664 mmHg 26%
    20:00 +28°C° 0 mm 2 mps 665 mmHg 25%
    21:00 +27°C° 0 mm 2 mps 665 mmHg 24%
    22:00 +26°C° 0 mm 3 mps 666 mmHg 24%
    23:00 +25°C° 0 mm 3 mps 666 mmHg 26%

    28 February, Wednesday

    Time Temperature Precipitation Wind Pressure Humidity
    00:00 +24°C° 0 mm 3 mps 666 mmHg 27%
    01:00 +22°C° 0 mm 3 mps 666 mmHg 29%
    02:00 +21°C° 0 mm 2 mps 666 mmHg 30%
    03:00 +21°C° 0 mm 2 mps 666 mmHg 32%
    04:00 +20°C° 0 mm 2 mps 666 mmHg 33%
    05:00 +20°C° 0 mm 2 mps 666 mmHg 34%
    06:00 +20°C° 0 mm 2 mps 666 mmHg 35%
    07:00 +21°C° 0 mm 2 mps 667 mmHg 36%
    08:00 +25°C° 0 mm 2 mps 667 mmHg 31%
    09:00 +27°C° 0 mm 3 mps 668 mmHg 26%
    10:00 +30°C° 0 mm 3 mps 668 mmHg 22%
    11:00 +33°C° 0 mm 4 mps 668 mmHg 19%
    12:00 +34°C° 0 mm 4 mps 667 mmHg 16%
    13:00 +36°C° 0 mm 4 mps 667 mmHg 14%
    14:00 +36°C° 0 mm 4 mps 666 mmHg 14%
    15:00 +36°C° 0 mm 4 mps 666 mmHg 13%
    16:00 +36°C° 0 mm 5 mps 665 mmHg 13%
    17:00 +34°C° 0 mm 4 mps 665 mmHg 16%
    18:00 +30°C° 0 mm 3 mps 665 mmHg 19%
    19:00 +28°C° 0 mm 2 mps 665 mmHg 21%
    20:00 +27°C° 0 mm 3 mps 665 mmHg 23%
    21:00 +26°C° 0 mm 3 mps 666 mmHg 24%
    22:00 +25°C° 0 mm 4 mps 666 mmHg 25%
    23:00 +25°C° 0 mm 4 mps 666 mmHg 28%
    Show more